TimeCDT,TemperatureF,Dew PointF,Humidity,Sea Level PressureIn,VisibilityMPH,Wind Direction,Wind SpeedMPH,Gust SpeedMPH,PrecipitationIn,Events,Conditions,WindDirDegrees,DateUTC
12:12 AM,26.6,15.8,64,30.07,10.0,North,9.2,-,N/A,,Overcast,350,2013-03-25 05:12:00
12:33 AM,24.8,14.0,64,30.07,10.0,North,6.9,-,N/A,,Overcast,350,2013-03-25 05:33:00
12:53 AM,24.8,14.0,64,30.07,10.0,North,6.9,-,N/A,,Overcast,350,2013-03-25 05:53:00
1:12 AM,24.8,12.2,59,30.07,10.0,NNW,6.9,-,N/A,,Overcast,340,2013-03-25 06:12:00
1:53 AM,24.8,12.2,59,30.07,10.0,NNW,5.8,-,N/A,,Scattered Clouds,330,2013-03-25 06:53:00
2:12 AM,23.0,12.2,63,30.07,10.0,NNW,6.9,-,N/A,,Clear,330,2013-03-25 07:12:00
2:33 AM,23.0,12.2,63,30.07,10.0,NNW,5.8,-,N/A,,Clear,330,2013-03-25 07:33:00
2:53 AM,23.0,12.2,63,30.07,10.0,NNW,6.9,-,N/A,,Clear,330,2013-03-25 07:53:00
3:12 AM,21.2,12.2,68,30.07,10.0,NNW,6.9,-,N/A,,Clear,330,2013-03-25 08:12:00
3:32 AM,21.2,10.4,63,30.07,10.0,NNW,5.8,-,N/A,,Clear,330,2013-03-25 08:32:00
3:53 AM,21.2,10.4,63,30.07,10.0,NNW,5.8,-,N/A,,Clear,330,2013-03-25 08:53:00
4:12 AM,21.2,10.4,63,30.07,10.0,NNW,5.8,-,N/A,,Clear,330,2013-03-25 09:12:00
4:32 AM,21.2,10.4,63,30.07,10.0,NNW,5.8,-,N/A,,Clear,330,2013-03-25 09:32:00
4:53 AM,21.2,10.4,63,30.07,10.0,NNW,6.9,-,N/A,,Clear,330,2013-03-25 09:53:00
5:32 AM,19.4,10.4,68,30.08,10.0,NNW,5.8,-,N/A,,Clear,330,2013-03-25 10:32:00
5:53 AM,19.4,10.4,68,30.09,10.0,NNW,4.6,-,N/A,,Clear,330,2013-03-25 10:53:00
6:12 AM,17.6,8.6,68,30.09,10.0,NNW,3.5,-,N/A,,Clear,330,2013-03-25 11:12:00
6:32 AM,15.8,6.8,68,30.10,10.0,NNW,3.5,-,N/A,,Clear,330,2013-03-25 11:32:00
6:53 AM,15.8,8.6,73,30.10,10.0,NNW,3.5,-,N/A,,Clear,330,2013-03-25 11:53:00
7:12 AM,15.8,8.6,73,30.11,10.0,Calm,Calm,-,N/A,,Clear,0,2013-03-25 12:12:00
7:32 AM,15.8,8.6,73,30.12,10.0,Calm,Calm,-,N/A,,Clear,0,2013-03-25 12:32:00
7:52 AM,17.6,8.6,68,30.12,10.0,Calm,Calm,-,N/A,,Clear,0,2013-03-25 12:52:00
8:12 AM,17.6,8.6,68,30.13,10.0,Calm,Calm,-,N/A,,Clear,0,2013-03-25 13:12:00
8:52 AM,19.4,8.6,63,30.13,10.0,NNW,3.5,-,N/A,,Clear,330,2013-03-25 13:52:00
9:12 AM,21.2,10.4,63,30.13,10.0,NW,3.5,-,N/A,,Clear,320,2013-03-25 14:12:00
9:33 AM,21.2,10.4,63,30.14,10.0,NNW,5.8,-,N/A,,Clear,340,2013-03-25 14:33:00
9:52 AM,24.8,10.4,54,30.14,10.0,NNW,6.9,-,N/A,,Clear,340,2013-03-25 14:52:00
10:12 AM,26.6,10.4,51,30.14,10.0,NNW,8.1,-,N/A,,Clear,340,2013-03-25 15:12:00
10:33 AM,26.6,12.2,55,30.14,10.0,NNW,8.1,-,N/A,,Clear,340,2013-03-25 15:33:00
10:52 AM,26.6,12.2,55,30.15,10.0,North,8.1,-,N/A,,Clear,350,2013-03-25 15:52:00
11:12 AM,28.4,12.2,51,30.14,10.0,NW,5.8,-,N/A,,Unknown,310,2013-03-25 16:12:00
11:33 AM,30.2,12.2,47,30.15,10.0,NNW,6.9,-,N/A,,Unknown,330,2013-03-25 16:33:00
11:52 AM,30.2,12.2,47,30.15,10.0,NNW,10.4,16.1,N/A,,Unknown,340,2013-03-25 16:52:00
12:12 PM,32.0,14.0,48,30.15,10.0,NW,10.4,16.1,N/A,,Clear,320,2013-03-25 17:12:00
12:33 PM,33.8,14.0,44,30.15,10.0,NNW,11.5,16.1,N/A,,Scattered Clouds,330,2013-03-25 17:33:00
12:52 PM,33.8,15.8,48,30.15,10.0,NNW,13.8,17.3,N/A,,Scattered Clouds,340,2013-03-25 17:52:00
1:12 PM,33.8,14.0,44,30.14,10.0,North,11.5,19.6,N/A,,Scattered Clouds,350,2013-03-25 18:12:00
1:33 PM,33.8,14.0,44,30.14,10.0,NNW,12.7,18.4,N/A,,Scattered Clouds,340,2013-03-25 18:33:00
1:52 PM,33.8,12.2,41,30.14,10.0,NNW,11.5,-,N/A,,Scattered Clouds,330,2013-03-25 18:52:00
2:12 PM,33.8,12.2,41,30.14,10.0,North,12.7,19.6,N/A,,Clear,360,2013-03-25 19:12:00
2:33 PM,33.8,14.0,44,30.13,10.0,NNW,13.8,-,N/A,,Clear,340,2013-03-25 19:33:00
2:52 PM,35.6,12.2,38,30.13,10.0,NNW,10.4,-,N/A,,Clear,340,2013-03-25 19:52:00
3:12 PM,35.6,14.0,41,30.13,10.0,North,10.4,-,N/A,,Clear,350,2013-03-25 20:12:00
3:33 PM,35.6,14.0,41,30.12,10.0,NNW,8.1,-,N/A,,Clear,330,2013-03-25 20:33:00
3:52 PM,35.6,14.0,41,30.12,10.0,NNW,11.5,-,N/A,,Clear,340,2013-03-25 20:52:00
4:12 PM,37.4,12.2,36,30.12,10.0,NNW,10.4,-,N/A,,Scattered Clouds,340,2013-03-25 21:12:00
4:33 PM,37.4,12.2,36,30.12,10.0,North,9.2,-,N/A,,Mostly Cloudy,350,2013-03-25 21:33:00
4:53 PM,35.6,14.0,41,30.12,10.0,North,11.5,-,N/A,,Mostly Cloudy,350,2013-03-25 21:53:00
5:12 PM,35.6,12.2,38,30.13,10.0,North,10.4,-,N/A,,Scattered Clouds,360,2013-03-25 22:12:00
5:33 PM,35.6,12.2,38,30.13,10.0,NNW,5.8,-,N/A,,Mostly Cloudy,340,2013-03-25 22:33:00
5:53 PM,35.6,12.2,38,30.13,10.0,North,8.1,-,N/A,,Scattered Clouds,360,2013-03-25 22:53:00
6:12 PM,35.6,12.2,38,30.14,10.0,North,8.1,-,N/A,,Scattered Clouds,350,2013-03-25 23:12:00
6:33 PM,35.6,12.2,38,30.14,10.0,NNW,6.9,-,N/A,,Scattered Clouds,340,2013-03-25 23:33:00
6:52 PM,35.6,12.2,38,30.15,10.0,NNW,3.5,-,N/A,,Mostly Cloudy,340,2013-03-25 23:52:00
7:12 PM,33.8,12.2,41,30.15,10.0,NNW,4.6,-,N/A,,Scattered Clouds,330,2013-03-26 00:12:00
7:33 PM,32.0,12.2,44,30.16,10.0,Calm,Calm,-,N/A,,Clear,0,2013-03-26 00:33:00
7:52 PM,30.2,14.0,51,30.17,10.0,Calm,Calm,-,N/A,,Clear,0,2013-03-26 00:52:00
8:13 PM,28.4,14.0,55,30.17,10.0,Calm,Calm,-,N/A,,Scattered Clouds,0,2013-03-26 01:13:00
8:33 PM,26.6,15.8,64,30.17,10.0,Calm,Calm,-,N/A,,Mostly Cloudy,0,2013-03-26 01:33:00
8:52 PM,30.2,14.0,51,30.18,10.0,WNW,4.6,-,N/A,,Overcast,290,2013-03-26 01:52:00
9:13 PM,32.0,14.0,48,30.18,10.0,WNW,5.8,-,N/A,,Overcast,290,2013-03-26 02:13:00
9:33 PM,30.2,15.8,55,30.18,10.0,WNW,4.6,-,N/A,,Overcast,290,2013-03-26 02:33:00
9:52 PM,30.2,14.0,51,30.18,10.0,NW,3.5,-,N/A,,Overcast,310,2013-03-26 02:52:00
10:13 PM,30.2,14.0,51,30.19,10.0,NW,6.9,-,N/A,,Overcast,310,2013-03-26 03:13:00
10:33 PM,30.2,14.0,51,30.19,10.0,NW,5.8,-,N/A,,Overcast,320,2013-03-26 03:33:00
10:52 PM,30.2,12.2,47,30.19,10.0,NW,6.9,-,N/A,,Overcast,320,2013-03-26 03:52:00
11:13 PM,30.2,12.2,47,30.19,10.0,NW,5.8,-,N/A,,Overcast,320,2013-03-26 04:13:00
11:33 PM,30.2,12.2,47,30.20,10.0,NW,6.9,-,N/A,,Overcast,310,2013-03-26 04:33:00
11:52 PM,30.2,12.2,47,30.20,10.0,WNW,3.5,-,N/A,,Overcast,300,2013-03-26 04:52:00